Location: Bottenau
(48.5138°N, 8.0462°E)
Time: 03:57:09
(UTC+00:00)

Cosmos 2315 Rocket - Pass Details

Date: 18 April 2021
Orbit: 967 x 1001 km, 82.9° (Epoch: 09 May)

Event Time Altitude Azimuth Distance (km) Brightness Sun altitude
Exits shadow 23:10:32 84° 293° (WNW) 1,003 3.9 -30.2°
Drops below altitude 10° 23:16:52 10° 8° (N) 2,776 7.3 -30.3°
Sets 23:19:25 0° 9° (N) 3,732 8.2 -30.3°
